EW1388 Weather Reports


time (UTC)temp
C
wind
direction
speed
KPH
gust
KPH
rain 1hr
cm
rain 24hr
cm
rain mn
cm
humidity
%
barometer
mb
20260504173030 23 204 16.1 38.6 0.00 0.00 0.00 49 998.7
20260504171528 23 216 16.1 29.0 0.00 0.00 0.00 50 999.1
20260504140105 18 185 12.9 19.3 0.00 0.00 0.00 63 1000.8
20260504081505 12 207 6.4 12.9 0.00 0.00 0.00 68 1003.3
20260504044535 15 232 3.2 6.4 0.00 0.00 0.00 62 1005.0
20260504043037 14 218 4.8 9.7 0.00 0.00 0.00 64 1005.1
20260504041530 14 204 6.4 11.3 0.00 0.00 0.00 65 1005.2
20260504040029 15 200 6.4 11.3 0.00 0.00 0.00 64 1005.4
20260504034529 15 207 8.0 14.5 0.00 0.00 0.00 64 1005.5
20260504033028 15 222 8.0 14.5 0.00 0.00 0.00 63 1005.7
20260504031527 15 209 9.7 16.1 0.00 0.00 0.00 63 1005.7
20260504030027 15 192 9.7 16.1 0.00 0.00 0.00 63 1005.8
20260504024532 15 215 8.0 14.5 0.00 0.00 0.00 62 1005.8
20260504023025 15 208 8.0 14.5 0.00 0.00 0.00 60 1005.7
20260504021526 15 203 6.4 9.7 0.00 0.00 0.00 59 1005.6
20260504020023 16 205 6.4 11.3 0.00 0.00 0.00 56 1005.6
20260504014523 16 207 6.4 14.5 0.00 0.00 0.00 55 1005.6
20260504013033 16 219 6.4 11.3 0.00 0.00 0.00 54 1005.5
20260504011521 17 225 6.4 9.7 0.00 0.00 0.00 53 1005.4
20260504010020 17 235 6.4 8.0 0.00 0.00 0.00 53 1005.5
20260504004522 18 236 4.8 11.3 0.00 0.00 0.00 50 1005.4
20260504003035 18 236 6.4 16.1 0.00 0.00 0.00 48 1005.4
20260504001519 20 239 12.9 19.3 0.00 0.00 0.00 45 1005.5
20260504000019 20 233 8.0 17.7 0.00 0.00 0.00 43 1005.4
20260503234517 20 248 8.0 19.3 0.00 0.00 0.00 42 1005.5
20260503233017 20 243 12.9 22.5 0.00 0.00 0.00 42 1005.5
20260503231517 20 253 16.1 22.5 0.00 0.00 0.00 42 1005.5
20260503230016 20 254 11.3 19.3 0.00 0.00 0.00 43 1005.4
20260503224526 21 233 17.7 25.7 0.00 0.00 0.00 42 1005.5
20260503223013 21 257 12.9 22.5 0.00 0.00 0.00 41 1005.6
20260503221511 21 246 12.9 25.7 0.00 0.00 0.00 42 1005.6
20260503220017 21 258 11.3 25.7 0.00 0.00 0.00 43 1005.6
20260503214510 20 240 20.9 30.6 0.00 0.00 0.00 46 1005.8
20260503213008 21 248 12.9 24.1 0.00 0.00 0.00 45 1005.8
20260503211505 20 252 14.5 27.4 0.00 0.00 0.00 47 1005.7
20260503210101 19 274 16.1 25.7 0.00 0.00 0.00 47 1006.3
20260503204600 19 238 17.7 32.2 0.00 0.00 0.00 48 1006.3
20260503203109 19 241 19.3 32.2 0.00 0.00 0.00 48 1006.4
20260503201559 18 224 20.9 35.4 0.00 0.00 0.00 48 1006.4
20260503200055 18 231 27.4 41.8 0.00 0.00 0.00 48 1006.8
20260503194555 17 219 20.9 32.2 0.00 0.00 0.00 49 1006.3
20260503193052 17 244 25.7 38.6 0.00 0.00 0.00 49 1007.2
20260503191550 18 241 19.3 29.0 0.00 0.00 0.00 48 1007.4
20260503190048 17 205 19.3 37.0 0.00 0.00 0.00 48 1006.5
20260503184604 18 236 35.4 46.7 0.00 0.00 0.00 47 1008.2
20260503183050 17 227 24.1 32.2 0.00 0.00 0.00 48 1007.6
20260503181550 17 216 17.7 27.4 0.00 0.00 0.00 48 1007.9
20260503180043 17 207 19.3 40.2 0.00 0.00 0.00 48 1008.1
20260503174540 17 223 24.1 38.6 0.00 0.00 0.00 47 1008.3